Location: ???????
(55.3754°N, 39.3545°E)
Time: 07:38:58
(UTC+00:00)

NOSS 2-1 (E) - Pass Details

Date: 14 April 2026
Orbit: 385 x 1749 km, 63.3° (Epoch: 7 May)

Event Time Altitude Azimuth Distance (km) Brightness Sun altitude
Rises 17:09:45 0° 307° (NW) 2,281 8.7 -6.6°
Reaches altitude 10° 17:11:49 10° 318° (NW) 1,438 6.8 -6.9°
Maximum altitude 17:14:40 34° 26° (NNE) 716 4.0 -7.2°
Drops below altitude 10° 17:17:54 10° 94° (E) 1,637 5.2 -7.6°
Enters shadow 17:18:16 - 96° (E) 1,787 5.4 -7.7°
